Terminal Aerodrome Forecast
Issued by NWS

Home | Current Version | Previous Version | Graphics & Text | Print | Product List | Glossary On
Versions: 1 2 3 4 5 6 7 8 9 10 11 12 13 14 15 16 17
000
FTUS43 KABR 041743
TAFPIR
TAF
KPIR 041743Z 0418/0518 09011KT P6SM BKN110
     FM051300 12013KT P6SM BKN060=

USA.gov is the U.S. government's official web portal to all federal, state and local government web resources and services.